Pagosa Springs, CO

8:50 AM MDT on September 30, 2016 (GMT -0600)
Pagosa Springs

Weather History for KPSO - November, 2013

Change the Weather History Date:

Saturday, November 30, 2013

  Actual Average (KDRO) Record (KDRO)
Temperature  
Mean Temperature 32 °F 30 °F  
Max Temperature 45 °F 43 °F 61 °F (1973)
Min Temperature 18 °F 18 °F 0 °F (2010)
Degree Days  
Heating Degree Days 34 35  
Month to date heating degree days 885  
Since 1 July heating degree days 1673  
Cooling Degree Days 0 0  
Month to date cooling degree days 0  
Year to date cooling degree days 243  
Moisture  
Dew Point 23 °F    
Average Humidity 79    
Maximum Humidity 100    
Minimum Humidity 43    
Precipitation  
Precipitation 0.00 in 0.04 in 1.61 in (1982)
Month to date precipitation 1.68  
Year to date precipitation 14.90  
Sea Level Pressure  
Sea Level Pressure 30.33 in    
Wind  
Wind Speed 1 mph (SW)    
Max Wind Speed 7 mph    
Max Gust Speed -    
Visibility 10 miles    
Events Thunderstorm    
T = Trace of Precipitation, MM = Missing Value Source: NWS Daily Summary

Daily Weather History Graph

Daily Weather History Graph

Search for Another Location

Airport or City:

Trip Planner

Search our weather history database for the weather conditions in past years. The results will help you decide how hot, cold, wet, or windy it might be!

Date:

Astronomy

Nov. 30, 2013 Rise Set
Actual Time 7:02 AM MST 4:50 PM MST
Civil Twilight 6:34 AM MST 5:19 PM MST
Nautical Twilight 6:02 AM MST 5:51 PM MST
Astronomical Twilight 5:30 AM MST 6:23 PM MST
Moon 4:19 AM MST 3:14 PM MST
Length of Visible Light 10h 45m
Length of Day
9h 48m
Waning Crescent, 7% of the Moon is Illuminated
Nov 30
Waning Crescent
Dec 2
New
Dec 9
First Quarter
Dec 17
Full
Dec 25
Last Quarter

Hourly Weather History & Observations

Time (MST) Temp. Windchill Dew Point Humidity Pressure Visibility Wind Dir Wind Speed Gust Speed Precip Events Conditions
12:15 AM 22.1 °F - 21.6 °F 98% 30.36 in 7.0 mi Calm Calm - N/A   Clear
12:35 AM 22.3 °F - 21.6 °F 97% 30.35 in 10.0 mi Calm Calm - N/A   Clear
12:55 AM 21.7 °F - 21.0 °F 97% 30.35 in 10.0 mi Calm Calm - N/A   Clear
1:15 AM 21.6 °F - 20.7 °F 96% 30.35 in 7.0 mi Calm Calm - N/A   Clear
1:35 AM 19.8 °F - 19.2 °F 98% 30.35 in 10.0 mi Calm Calm - N/A   Clear
1:55 AM 21.0 °F - 20.3 °F 97% 30.35 in 10.0 mi Calm Calm - N/A   Clear
2:15 AM 21.4 °F - 20.5 °F 96% 30.36 in 10.0 mi Calm Calm - N/A   Clear
2:35 AM 19.4 °F - 18.3 °F 96% 30.36 in 10.0 mi Calm Calm - N/A   Clear
2:55 AM 20.5 °F 15.6 °F 19.6 °F 96% 30.36 in 10.0 mi NW 3.5 mph - N/A   Clear
3:15 AM 21.6 °F - 21.0 °F 98% 30.36 in 10.0 mi Calm Calm - N/A   Clear
3:35 AM 20.7 °F - 19.9 °F 97% 30.36 in 10.0 mi Calm Calm - N/A   Scattered Clouds
3:55 AM 20.3 °F - 19.8 °F 98% 30.36 in 10.0 mi Calm Calm - N/A   Scattered Clouds
4:15 AM 20.1 °F - 19.4 °F 97% 30.36 in 10.0 mi Calm Calm - N/A   Mostly Cloudy
4:35 AM 20.1 °F - 19.2 °F 96% 30.36 in 10.0 mi Calm Calm - N/A   Scattered Clouds
4:55 AM 20.8 °F - 19.9 °F 96% 30.36 in 10.0 mi Calm Calm - N/A   Clear
5:15 AM 20.3 °F - 19.4 °F 96% 30.36 in 10.0 mi Calm Calm - N/A   Clear
5:35 AM 20.3 °F - 19.6 °F 97% 30.35 in 10.0 mi Calm Calm - N/A   Clear
5:55 AM 19.8 °F - 18.9 °F 96% 30.35 in 10.0 mi Calm Calm - N/A   Clear
6:15 AM 20.7 °F - 19.6 °F 96% 30.36 in 10.0 mi Calm Calm - N/A   Clear
6:35 AM 18.3 °F - 17.4 °F 96% 30.36 in 10.0 mi Calm Calm - N/A   Clear
6:55 AM 18.5 °F - 17.6 °F 96% 30.36 in 10.0 mi Calm Calm - N/A   Clear
7:15 AM 19.2 °F - 18.7 °F 98% 30.37 in 10.0 mi Calm Calm - N/A Thunderstorm Clear
7:35 AM 18.5 °F - 17.6 °F 96% 30.37 in 10.0 mi Calm Calm - N/A   Clear
7:55 AM 21.0 °F - 20.5 °F 98% 30.37 in 10.0 mi Calm Calm - N/A   Clear
8:15 AM 24.1 °F - 23.2 °F 96% 30.38 in 10.0 mi Calm Calm - N/A   Clear
8:35 AM 27.5 °F - 23.0 °F 83% 30.38 in 10.0 mi Calm Calm - N/A   Clear
8:55 AM 28.4 °F - 22.3 °F 78% 30.38 in 10.0 mi Calm Calm - N/A   Clear
9:15 AM 29.8 °F - 22.1 °F 73% 30.38 in 10.0 mi Calm Calm - N/A   Clear
9:35 AM 32.0 °F - 22.8 °F 69% 30.38 in 10.0 mi Calm Calm - N/A   Clear
9:55 AM 32.5 °F - 22.6 °F 67% 30.38 in 10.0 mi Calm Calm - N/A   Clear
10:15 AM 35.2 °F - 22.1 °F 59% 30.38 in 10.0 mi Calm Calm - N/A   Clear
10:35 AM 36.1 °F - 22.1 °F 57% 30.38 in 10.0 mi Calm Calm - N/A   Clear
10:55 AM 36.9 °F - 23.4 °F 58% 30.37 in 10.0 mi Calm Calm - N/A   Clear
11:15 AM 38.3 °F - 23.0 °F 54% 30.36 in 10.0 mi Calm Calm - N/A   Clear
11:35 AM 40.6 °F - 24.1 °F 52% 30.35 in 10.0 mi Calm Calm - N/A   Clear
11:55 AM 41.7 °F - 23.7 °F 49% 30.33 in 10.0 mi Calm Calm - N/A   Clear
12:15 PM 42.4 °F 39.6 °F 24.6 °F 49% 30.32 in 10.0 mi South 4.6 mph - N/A   Clear
12:35 PM 43.2 °F 40.5 °F 23.9 °F 47% 30.31 in 10.0 mi SSW 4.6 mph - N/A   Clear
12:55 PM 43.5 °F 41.9 °F 23.7 °F 46% 30.30 in 10.0 mi SSW 3.5 mph - N/A   Clear
1:15 PM 43.9 °F 41.3 °F 23.7 °F 45% 30.29 in 10.0 mi SW 4.6 mph - N/A   Clear
1:35 PM 44.2 °F 41.0 °F 23.9 °F 45% 30.29 in 10.0 mi SSW 5.8 mph - N/A   Clear
1:55 PM 44.1 °F - 23.2 °F 44% 30.28 in 10.0 mi Calm Calm - N/A   Clear
2:15 PM 44.6 °F 43.1 °F 23.7 °F 44% 30.27 in 10.0 mi South 3.5 mph - N/A   Clear
2:35 PM 44.4 °F - 23.7 °F 44% 30.27 in 10.0 mi Calm Calm - N/A   Clear
2:55 PM 44.6 °F - 23.5 °F 44% 30.27 in 10.0 mi Calm Calm - N/A   Scattered Clouds
3:15 PM 45.0 °F - 23.5 °F 43% 30.27 in 10.0 mi Calm Calm - N/A   Clear
3:35 PM 44.6 °F 42.2 °F 23.9 °F 44% 30.27 in 10.0 mi South 4.6 mph - N/A   Clear
3:55 PM 43.7 °F 40.3 °F 25.3 °F 48% 30.27 in 10.0 mi South 5.8 mph - N/A   Clear
4:15 PM 44.1 °F 41.5 °F 25.0 °F 47% 30.27 in 10.0 mi SSW 4.6 mph - N/A   Clear
4:35 PM 43.2 °F 40.5 °F 26.2 °F 51% 30.27 in 10.0 mi SW 4.6 mph - N/A   Clear
4:55 PM 41.7 °F 38.8 °F 26.6 °F 55% 30.27 in 10.0 mi SW 4.6 mph - N/A   Clear
5:15 PM 39.6 °F 37.4 °F 27.3 °F 62% 30.28 in 10.0 mi SW 3.5 mph - N/A   Clear
5:35 PM 34.9 °F 30.8 °F 26.8 °F 72% 30.29 in 10.0 mi WSW 4.6 mph - N/A   Clear
5:55 PM 36.0 °F 30.3 °F 27.1 °F 70% 30.30 in 10.0 mi West 6.9 mph - N/A   Clear
6:15 PM 36.1 °F 30.6 °F 28.0 °F 72% 30.30 in 10.0 mi West 6.9 mph - N/A   Clear
6:35 PM 35.8 °F 33.0 °F 28.4 °F 75% 30.31 in 10.0 mi SW 3.5 mph - N/A   Clear
6:55 PM 32.4 °F - 26.6 °F 79% 30.31 in 10.0 mi Calm Calm - N/A   Clear
7:15 PM 31.1 °F - 27.9 °F 88% 30.32 in 10.0 mi Calm Calm - N/A   Clear
7:35 PM 28.8 °F - 27.0 °F 93% 30.31 in 10.0 mi Calm Calm - N/A   Clear
7:55 PM 28.2 °F - 26.6 °F 94% 30.31 in 10.0 mi Calm Calm - N/A   Clear
8:15 PM 28.2 °F - 27.1 °F 96% 30.31 in 10.0 mi Calm Calm - N/A   Clear
8:35 PM 29.1 °F - 28.2 °F 96% 30.31 in 10.0 mi Calm Calm - N/A   Clear
8:55 PM 28.2 °F - 27.5 °F 97% 30.31 in 10.0 mi Calm Calm - N/A   Clear
9:15 PM 27.9 °F - 27.1 °F 97% 30.31 in 10.0 mi Calm Calm - N/A   Clear
9:35 PM 28.2 °F - 28.2 °F 100% 30.32 in 10.0 mi Calm Calm - N/A   Clear
9:55 PM 26.8 °F - 26.1 °F 97% 30.31 in 7.0 mi Calm Calm - N/A   Clear
10:15 PM 26.8 °F - 26.4 °F 99% 30.31 in 7.0 mi Calm Calm - N/A   Clear
10:35 PM 26.8 °F - 26.6 °F 99% 30.31 in 10.0 mi Calm Calm - N/A   Clear
10:55 PM 27.3 °F - 27.1 °F 99% 30.32 in 10.0 mi Calm Calm - N/A   Clear
11:15 PM 27.0 °F - 26.6 °F 99% 30.32 in 10.0 mi Calm Calm - N/A   Clear
11:35 PM 25.7 °F - 25.5 °F 99% 30.32 in 7.0 mi Calm Calm - N/A   Clear
11:55 PM 24.6 °F - 24.3 °F 99% 30.32 in 10.0 mi Calm Calm - N/A   Clear